This is the latest recevied weather packets stored in our database for station/object KA7EII-13. If no packets are shown the sender has not sent any weather packets the latest 10 day(s).
| Time | Temp. | Humidity | Pressure | Rain* | Wind** | Luminosity | Snow |
|---|---|---|---|---|---|---|---|
| 1777473715 | 5° C | 67% | 1109.9 hPa | 0 mm | - | 249 W/m² | - |
| 1777473410 | 5° C | 69% | 1110 hPa | 0 mm | - | 194 W/m² | - |
| 1777473107 | 4.44° C | 70% | 1109.7 hPa | 0 mm | - | 145 W/m² | - |
| 1777472803 | 3.89° C | 71% | 1110.1 hPa | 0 mm | - | 132 W/m² | - |
| 1777472500 | 3.89° C | 71% | 1110 hPa | 0 mm | - | 132 W/m² | - |
| 1777472197 | 3.89° C | 73% | 1109.7 hPa | 0 mm | - | 127 W/m² | - |
| 1777471892 | 3.33° C | 73% | 1109.8 hPa | 0 mm | - | 167 W/m² | - |
| 1777471590 | 3.33° C | 76% | 1109.8 hPa | 0 mm | - | 94 W/m² | - |
| 1777471286 | 2.78° C | 77% | 1109.9 hPa | 0 mm | - | 86 W/m² | - |
| 1777470983 | 2.22° C | 78% | 1109.7 hPa | 0 mm | - | 80 W/m² | - |
| 1777470681 | 2.22° C | 79% | 1110 hPa | 0 mm | - | 73 W/m² | - |
| 1777470376 | 1.67° C | 79% | 1109.5 hPa | 0 mm | - | 65 W/m² | - |
| 1777470073 | 1.67° C | 80% | 1109.7 hPa | 0 mm | - | 58 W/m² | - |
| 1777469769 | 1.67° C | 81% | 1109.7 hPa | 0 mm | - | 52 W/m² | - |
| 1777469465 | 1.11° C | 81% | 1109.9 hPa | 0 mm | - | 49 W/m² | - |
| 1777469159 | 1.11° C | 81% | 1109.8 hPa | 0 mm | - | 45 W/m² | - |
| 1777468853 | 1.11° C | 82% | 1109.7 hPa | 0 mm | - | 41 W/m² | - |
| 1777468550 | 1.11° C | 82% | 1109.7 hPa | 0 mm | - | 37 W/m² | - |
| 1777468247 | 0.56° C | 83% | 1109.9 hPa | 0 mm | - | 34 W/m² | - |
| 1777467944 | 0.56° C | 83% | 1109.5 hPa | 0 mm | - | 32 W/m² | - |
| 1777467640 | 0.56° C | 83% | 1109.5 hPa | 0 mm | - | 28 W/m² | - |
| 1777467340 | 0.56° C | 83% | 1109.7 hPa | 0 mm | - | 21 W/m² | - |
| 1777467036 | 0.56° C | 83% | 1109.7 hPa | 0 mm | - | 16 W/m² | - |
| 1777466734 | 1.11° C | 83% | 1109.3 hPa | 0 mm | - | 12 W/m² | - |
| 1777466432 | 1.11° C | 82% | 1109.4 hPa | 0 mm | - | 9 W/m² | - |
* Rain latest hour (hover to see other rain measurements)
** Current wind speed in m/s (hover to see current wind gust speed)